Time,TemperatureF,DewpointF,PressureIn,WindDirection,WindDirectionDegrees,WindSpeedMPH,WindSpeedGustMPH,Humidity,HourlyPrecipIn,Conditions,Clouds,dailyrainin,SoftwareType,DateUTC
2013-06-02 00:01:00,64.9,61.0,29.99,SW,226,1.0,10.0,86,0.00,,,0.00,weatherlink.com 1.10,2013-06-02 04:01:00,
2013-06-02 00:16:00,65.3,61.0,29.99,WNW,290,2.0,13.0,85,0.00,,,0.00,weatherlink.com 1.10,2013-06-02 04:16:00,
2013-06-02 00:31:00,65.4,61.0,29.98,WNW,288,9.0,11.0,85,0.00,,,0.00,weatherlink.com 1.10,2013-06-02 04:31:00,
2013-06-02 00:46:00,65.0,61.0,29.98,West,274,2.0,10.0,88,0.00,,,0.00,weatherlink.com 1.10,2013-06-02 04:46:00,
2013-06-02 01:01:00,64.5,61.0,29.98,SSW,200,3.0,12.0,89,0.00,,,0.00,weatherlink.com 1.10,2013-06-02 05:01:00,
2013-06-02 01:16:00,64.2,61.0,29.97,SSW,207,7.0,8.0,90,0.00,,,0.00,weatherlink.com 1.10,2013-06-02 05:16:00,
2013-06-02 01:31:00,64.1,61.0,29.97,WNW,293,1.0,13.0,90,0.00,,,0.00,weatherlink.com 1.10,2013-06-02 05:31:00,
2013-06-02 01:46:00,63.7,61.0,29.96,WNW,293,5.0,10.0,90,0.00,,,0.00,weatherlink.com 1.10,2013-06-02 05:46:00,
2013-06-02 02:01:00,64.0,61.0,29.96,North,1,1.0,13.0,89,0.00,,,0.00,weatherlink.com 1.10,2013-06-02 06:01:00,
2013-06-02 02:16:00,64.3,61.0,29.96,West,271,1.0,11.0,88,0.00,,,0.00,weatherlink.com 1.10,2013-06-02 06:16:00,
2013-06-02 02:31:00,63.9,61.0,29.96,SSW,213,2.0,12.0,89,0.00,,,0.00,weatherlink.com 1.10,2013-06-02 06:31:00,
2013-06-02 02:46:00,63.8,61.0,29.95,West,269,5.0,8.0,90,0.00,,,0.00,weatherlink.com 1.10,2013-06-02 06:46:00,
2013-06-02 03:01:00,63.9,61.0,29.96,West,271,2.0,18.0,90,0.00,,,0.00,weatherlink.com 1.10,2013-06-02 07:01:00,
2013-06-02 03:16:00,64.0,61.0,29.96,SW,236,2.0,9.0,91,0.00,,,0.00,weatherlink.com 1.10,2013-06-02 07:16:00,
2013-06-02 03:31:00,63.6,61.0,29.96,WSW,248,1.0,11.0,91,0.00,,,0.00,weatherlink.com 1.10,2013-06-02 07:31:00,
2013-06-02 03:46:00,63.4,61.0,29.96,NW,318,2.0,11.0,91,0.00,,,0.00,weatherlink.com 1.10,2013-06-02 07:46:00,
2013-06-02 04:01:00,63.1,61.0,29.96,WSW,250,3.0,9.0,92,0.00,,,0.00,weatherlink.com 1.10,2013-06-02 08:01:00,
2013-06-02 04:17:00,62.8,61.0,29.95,WSW,254,4.0,12.0,92,0.00,,,0.00,weatherlink.com 1.10,2013-06-02 08:17:00,
2013-06-02 04:32:00,62.9,61.0,29.95,WSW,248,4.0,8.0,92,0.00,,,0.00,weatherlink.com 1.10,2013-06-02 08:32:00,
2013-06-02 04:47:00,63.0,61.0,29.95,West,261,5.0,8.0,92,0.00,,,0.00,weatherlink.com 1.10,2013-06-02 08:47:00,
2013-06-02 05:02:00,63.1,61.0,29.95,SW,226,4.0,12.0,93,0.00,,,0.00,weatherlink.com 1.10,2013-06-02 09:02:00,
2013-06-02 05:17:00,63.7,62.0,29.95,ESE,110,2.0,16.0,93,0.00,,,0.00,weatherlink.com 1.10,2013-06-02 09:17:00,
2013-06-02 05:32:00,64.1,62.0,29.96,WSW,238,3.0,11.0,93,0.00,,,0.00,weatherlink.com 1.10,2013-06-02 09:32:00,
2013-06-02 05:47:00,64.2,62.0,29.95,ENE,64,1.0,11.0,93,0.00,,,0.00,weatherlink.com 1.10,2013-06-02 09:47:00,
2013-06-02 06:02:00,64.3,62.0,29.95,SW,234,2.0,13.0,93,0.00,,,0.00,weatherlink.com 1.10,2013-06-02 10:02:00,
2013-06-02 06:17:00,64.4,62.0,29.96,West,274,4.0,11.0,93,0.00,,,0.00,weatherlink.com 1.10,2013-06-02 10:17:00,
2013-06-02 06:32:00,64.3,62.0,29.96,East,92,4.0,14.0,92,0.00,,,0.00,weatherlink.com 1.10,2013-06-02 10:32:00,
2013-06-02 06:47:00,64.2,62.0,29.96,WNW,283,2.0,12.0,92,0.00,,,0.00,weatherlink.com 1.10,2013-06-02 10:47:00,
2013-06-02 07:02:00,64.2,62.0,29.96,WNW,303,3.0,12.0,92,0.00,,,0.00,weatherlink.com 1.10,2013-06-02 11:02:00,
2013-06-02 07:17:00,64.3,62.0,29.95,SW,219,3.0,16.0,92,0.00,,,0.00,weatherlink.com 1.10,2013-06-02 11:17:00,
2013-06-02 07:32:00,64.9,63.0,29.96,West,276,2.0,12.0,92,0.00,,,0.00,weatherlink.com 1.10,2013-06-02 11:32:00,
2013-06-02 07:47:00,65.1,63.0,29.96,SSE,166,1.0,11.0,92,0.00,,,0.00,weatherlink.com 1.10,2013-06-02 11:47:00,
2013-06-02 08:02:00,65.7,63.0,29.96,West,269,4.0,11.0,91,0.00,,,0.00,weatherlink.com 1.10,2013-06-02 12:02:00,
2013-06-02 08:17:00,66.3,63.0,29.95,SE,136,2.0,10.0,90,0.00,,,0.00,weatherlink.com 1.10,2013-06-02 12:17:00,
2013-06-02 08:32:00,67.4,65.0,29.95,East,101,2.0,6.0,90,0.00,,,0.00,weatherlink.com 1.10,2013-06-02 12:32:00,
2013-06-02 08:47:00,68.5,65.0,29.95,WNW,301,1.0,6.0,88,0.00,,,0.00,weatherlink.com 1.10,2013-06-02 12:47:00,
2013-06-02 09:02:00,68.6,64.0,29.95,WSW,247,2.0,7.0,86,0.00,,,0.00,weatherlink.com 1.10,2013-06-02 13:02:00,
2013-06-02 09:17:00,68.5,64.0,29.95,South,169,2.0,9.0,86,0.00,,,0.00,weatherlink.com 1.10,2013-06-02 13:17:00,
2013-06-02 09:32:00,70.0,65.0,29.94,South,169,2.0,6.0,85,0.00,,,0.00,weatherlink.com 1.10,2013-06-02 13:32:00,
2013-06-02 09:47:00,70.1,65.0,29.94,West,259,1.0,6.0,83,0.00,,,0.00,weatherlink.com 1.10,2013-06-02 13:47:00,
2013-06-02 10:02:00,71.1,66.0,29.94,South,186,3.0,8.0,83,0.00,,,0.00,weatherlink.com 1.10,2013-06-02 14:02:00,
2013-06-02 10:17:00,72.2,66.0,29.94,SSE,167,2.0,9.0,81,0.00,,,0.00,weatherlink.com 1.10,2013-06-02 14:17:00,
2013-06-02 10:32:00,71.9,66.0,29.94,North,6,1.0,11.0,82,0.00,,,0.00,weatherlink.com 1.10,2013-06-02 14:32:00,
2013-06-02 10:47:00,72.4,67.0,29.94,SW,230,1.0,10.0,82,0.00,,,0.00,weatherlink.com 1.10,2013-06-02 14:47:00,
2013-06-02 11:02:00,73.3,67.0,29.94,NNW,334,1.0,7.0,80,0.00,,,0.00,weatherlink.com 1.10,2013-06-02 15:02:00,
2013-06-02 11:17:00,72.7,66.0,29.94,SW,220,5.0,11.0,79,0.00,,,0.00,weatherlink.com 1.10,2013-06-02 15:17:00,
2013-06-02 11:32:00,72.8,66.0,29.94,ESE,114,10.0,12.0,80,0.00,,,0.00,weatherlink.com 1.10,2013-06-02 15:32:00,
2013-06-02 11:47:00,72.6,66.0,29.95,East,89,3.0,12.0,79,0.00,,,0.00,weatherlink.com 1.10,2013-06-02 15:47:00,
2013-06-02 12:02:00,73.2,67.0,29.94,NW,306,6.0,16.0,80,0.00,,,0.00,weatherlink.com 1.10,2013-06-02 16:02:00,
2013-06-02 12:17:00,73.0,67.0,29.95,SE,127,3.0,14.0,80,0.00,,,0.00,weatherlink.com 1.10,2013-06-02 16:17:00,
2013-06-02 12:33:00,72.7,66.0,29.95,SW,225,2.0,11.0,78,0.00,,,0.00,weatherlink.com 1.10,2013-06-02 16:33:00,
2013-06-02 12:48:00,72.7,66.0,29.94,SSE,160,5.0,10.0,79,0.00,,,0.00,weatherlink.com 1.10,2013-06-02 16:48:00,
2013-06-02 13:03:00,72.0,65.0,29.94,SSW,213,6.0,12.0,78,0.00,,,0.00,weatherlink.com 1.10,2013-06-02 17:03:00,
2013-06-02 13:18:00,70.8,64.0,29.94,East,83,3.0,11.0,79,0.00,,,0.00,weatherlink.com 1.10,2013-06-02 17:18:00,
2013-06-02 13:33:00,70.6,65.0,29.94,West,273,2.0,10.0,82,0.00,,,0.00,weatherlink.com 1.10,2013-06-02 17:33:00,
2013-06-02 13:48:00,71.3,65.0,29.94,SSE,151,3.0,13.0,81,0.00,,,0.00,weatherlink.com 1.10,2013-06-02 17:48:00,
2013-06-02 14:03:00,70.8,64.0,29.93,NNW,332,4.0,13.0,80,0.00,,,0.00,weatherlink.com 1.10,2013-06-02 18:03:00,
2013-06-02 14:18:00,70.3,65.0,29.93,SSW,212,3.0,15.0,82,0.00,,,0.00,weatherlink.com 1.10,2013-06-02 18:18:00,
2013-06-02 14:33:00,70.7,65.0,29.92,SSE,152,2.0,16.0,81,0.00,,,0.00,weatherlink.com 1.10,2013-06-02 18:33:00,
2013-06-02 14:48:00,70.4,64.0,29.92,SSW,203,5.0,13.0,81,0.00,,,0.00,weatherlink.com 1.10,2013-06-02 18:48:00,
2013-06-02 15:03:00,69.8,64.0,29.91,South,188,5.0,14.0,83,0.00,,,0.00,weatherlink.com 1.10,2013-06-02 19:03:00,
2013-06-02 15:18:00,69.2,64.0,29.91,South,172,1.0,14.0,82,0.00,,,0.00,weatherlink.com 1.10,2013-06-02 19:18:00,
2013-06-02 15:33:00,69.6,64.0,29.91,ESE,103,3.0,14.0,83,0.00,,,0.00,weatherlink.com 1.10,2013-06-02 19:33:00,
2013-06-02 15:48:00,69.2,64.0,29.90,WNW,285,2.0,13.0,83,0.00,,,0.00,weatherlink.com 1.10,2013-06-02 19:48:00,
2013-06-02 16:03:00,70.0,64.0,29.89,NE,55,4.0,12.0,81,0.00,,,0.00,weatherlink.com 1.10,2013-06-02 20:03:00,
2013-06-02 16:18:00,69.9,64.0,29.89,SSW,203,1.0,9.0,81,0.00,,,0.00,weatherlink.com 1.10,2013-06-02 20:18:00,
2013-06-02 16:33:00,68.8,64.0,29.89,SSE,154,5.0,15.0,83,0.00,,,0.00,weatherlink.com 1.10,2013-06-02 20:33:00,
2013-06-02 16:48:00,68.9,64.0,29.89,WNW,295,2.0,8.0,83,0.00,,,0.00,weatherlink.com 1.10,2013-06-02 20:48:00,
2013-06-02 17:03:00,68.5,63.0,29.89,SSW,194,2.0,14.0,83,0.00,,,0.00,weatherlink.com 1.10,2013-06-02 21:03:00,
2013-06-02 17:18:00,68.1,63.0,29.89,West,262,3.0,14.0,84,0.00,,,0.00,weatherlink.com 1.10,2013-06-02 21:18:00,
2013-06-02 17:33:00,67.9,63.0,29.88,South,184,2.0,16.0,84,0.00,,,0.00,weatherlink.com 1.10,2013-06-02 21:33:00,
2013-06-02 17:48:00,67.6,63.0,29.88,NW,307,1.0,15.0,85,0.00,,,0.00,weatherlink.com 1.10,2013-06-02 21:48:00,
2013-06-02 18:03:00,67.5,63.0,29.89,SE,143,3.0,12.0,84,0.00,,,0.00,weatherlink.com 1.10,2013-06-02 22:03:00,
2013-06-02 18:18:00,67.4,62.0,29.89,East,97,6.0,15.0,84,0.00,,,0.00,weatherlink.com 1.10,2013-06-02 22:18:00,
2013-06-02 18:33:00,66.9,62.0,29.89,SSE,160,4.0,11.0,85,0.00,,,0.00,weatherlink.com 1.10,2013-06-02 22:33:00,
2013-06-02 18:48:00,66.3,62.0,29.89,SE,140,1.0,13.0,86,0.00,,,0.00,weatherlink.com 1.10,2013-06-02 22:48:00,
2013-06-02 19:03:00,64.8,61.0,29.90,SW,216,4.0,8.0,88,0.00,,,0.00,weatherlink.com 1.10,2013-06-02 23:03:00,
2013-06-02 19:18:00,64.3,61.0,29.90,ENE,62,4.0,13.0,90,0.00,,,0.00,weatherlink.com 1.10,2013-06-02 23:18:00,
2013-06-02 19:33:00,64.1,62.0,29.89,South,188,3.0,8.0,91,0.00,,,0.00,weatherlink.com 1.10,2013-06-02 23:33:00,
2013-06-02 19:48:00,63.5,61.0,29.89,SW,230,4.0,12.0,91,0.00,,,0.00,weatherlink.com 1.10,2013-06-02 23:48:00,
2013-06-02 20:03:00,63.2,61.0,29.89,West,281,5.0,12.0,92,0.00,,,0.00,weatherlink.com 1.10,2013-06-03 00:03:00,
2013-06-02 20:18:00,63.0,61.0,29.89,South,181,7.0,14.0,92,0.00,,,0.00,weatherlink.com 1.10,2013-06-03 00:18:00,
2013-06-02 20:33:00,62.8,61.0,29.90,West,280,3.0,12.0,93,0.00,,,0.00,weatherlink.com 1.10,2013-06-03 00:33:00,
2013-06-02 20:48:00,62.9,61.0,29.90,SW,233,1.0,9.0,93,0.00,,,0.00,weatherlink.com 1.10,2013-06-03 00:48:00,
2013-06-02 21:03:00,63.1,61.0,29.91,South,169,2.0,17.0,93,0.00,,,0.00,weatherlink.com 1.10,2013-06-03 01:03:00,
2013-06-02 21:18:00,63.3,61.0,29.91,NE,43,1.0,9.0,93,0.00,,,0.00,weatherlink.com 1.10,2013-06-03 01:18:00,
2013-06-02 21:33:00,63.6,62.0,29.91,SSW,201,5.0,11.0,93,0.00,,,0.00,weatherlink.com 1.10,2013-06-03 01:33:00,
2013-06-02 21:48:00,63.6,62.0,29.91,SW,225,3.0,10.0,93,0.00,,,0.00,weatherlink.com 1.10,2013-06-03 01:48:00,
2013-06-02 22:03:00,63.6,62.0,29.91,SE,146,0.0,8.0,93,0.00,,,0.00,weatherlink.com 1.10,2013-06-03 02:03:00,
2013-06-02 22:18:00,63.2,61.0,29.90,WSW,252,10.0,10.0,93,0.00,,,0.00,weatherlink.com 1.10,2013-06-03 02:18:00,
2013-06-02 22:33:00,63.2,62.0,29.90,South,179,1.0,7.0,94,0.00,,,0.00,weatherlink.com 1.10,2013-06-03 02:33:00,
2013-06-02 22:48:00,63.1,61.0,29.90,SW,229,3.0,12.0,93,0.00,,,0.00,weatherlink.com 1.10,2013-06-03 02:48:00,
2013-06-02 23:03:00,63.1,61.0,29.90,SSW,209,3.0,9.0,94,0.00,,,0.00,weatherlink.com 1.10,2013-06-03 03:03:00,
2013-06-02 23:18:00,63.2,62.0,29.90,SW,220,0.0,8.0,94,0.00,,,0.00,weatherlink.com 1.10,2013-06-03 03:18:00,
2013-06-02 23:33:00,63.1,61.0,29.90,South,177,1.0,11.0,93,0.00,,,0.00,weatherlink.com 1.10,2013-06-03 03:33:00,
2013-06-02 23:48:00,63.1,61.0,29.90,South,184,3.0,7.0,94,0.00,,,0.00,weatherlink.com 1.10,2013-06-03 03:48:00,